Total_Precipitation_Accumulation
1.55 1.74 2.22 2.85 3.28 3.81 4.26 4.25 4.04 4.05 4.10 4.15 3.96 4.13 4.34 4.62 4.87 4.76 4.64 4.57 4.49 4.42 4.44 4.46 4.44 4.29 4.19 4.06 3.92 3.84 3.70 3.46 3.30 3.25 2.90 2.47 2.14 2.02 1.97 2.01 2.09 2.10 2.10
1.72 1.99 2.42 2.72 3.12 3.49 3.71 4.03 4.19 4.21 3.96 4.27 4.57 4.84 5.19 5.22 5.50 5.75 5.80 5.62 5.33 5.13 4.97 4.94 4.67 4.35 4.19 4.04 3.85 3.72 3.55 3.24 3.14 3.11 3.12 2.65 2.22 1.82 1.60 1.70 1.71 1.76 1.94
1.99 2.35 2.66 2.77 2.95 3.31 3.60 3.93 4.27 4.39 4.28 4.71 5.22 5.63 6.00 5.95 5.99 6.02 6.02 5.96 5.53 5.15 4.94 4.74 4.58 4.37 4.20 4.03 3.91 3.77 3.62 3.31 3.11 3.03 3.22 3.06 2.63 2.11 1.83 1.67 1.67 1.76 1.86
1.84 2.14 2.46 2.87 2.86 3.11 3.41 3.66 4.08 4.50 4.77 5.14 5.62 6.15 6.48 6.71 6.59 6.25 5.97 5.59 5.15 4.76 4.37 4.19 4.25 4.14 3.96 3.74 3.45 3.31 3.28 3.19 3.03 2.94 2.81 2.79 2.72 2.53 2.22 1.96 1.94 1.97 1.93
1.74 1.93 2.07 2.40 2.63 2.87 3.14 3.46 3.83 4.25 4.86 5.62 6.21 6.62 6.98 7.00 6.47 5.94 5.36 4.90 4.54 4.20 3.90 3.75 3.84 3.76 3.53 3.34 3.08 2.87 2.73 2.72 2.76 2.75 2.67 2.59 2.54 2.39 2.25 2.07 1.98 1.95 1.88
1.82 1.95 2.07 2.34 2.50 2.63 2.89 3.27 3.72 4.11 4.65 5.39 6.03 6.32 6.52 6.47 6.03 5.41 4.87 4.44 3.97 3.60 3.26 3.00 2.94 2.86 2.69 2.60 2.56 2.48 2.46 2.46 2.49 2.50 2.42 2.37 2.36 2.32 2.33 2.20 1.98 1.94 1.99
2.01 1.96 1.94 2.05 2.30 2.45 2.70 3.04 3.44 3.92 4.28 4.66 5.19 5.26 5.31 5.11 4.73 4.51 4.20 3.71 3.25 2.89 2.55 2.32 2.21 2.17 2.15 2.16 2.17 2.16 2.16 2.13 2.18 2.19 2.17 2.14 2.09 2.11 2.28 2.38 2.24 2.10 1.97
1.84 1.85 1.78 1.95 2.21 2.48 2.71 2.92 3.19 3.56 3.88 4.00 4.08 3.98 3.85 3.75 3.62 3.42 3.05 2.70 2.44 2.27 2.13 1.98 1.84 1.82 1.86 1.88 1.97 1.93 1.86 1.82 1.84 1.79 1.85 1.88 1.82 1.92 2.13 2.27 2.44 2.41 2.15
1.62 1.69 1.73 1.83 2.05 2.37 2.53 2.68 2.81 2.96 2.98 2.96 2.94 2.93 2.89 2.74 2.70 2.60 2.31 2.08 1.95 1.81 1.75 1.72 1.68 1.61 1.56 1.52 1.51 1.51 1.52 1.57 1.57 1.53 1.54 1.55 1.55 1.67 1.82 1.99 2.28 2.49 2.40
1.63 1.64 1.73 1.85 1.79 1.89 2.03 2.17 2.28 2.42 2.41 2.29 2.17 2.21 2.21 2.09 1.96 1.83 1.71 1.60 1.54 1.45 1.44 1.38 1.37 1.41 1.42 1.34 1.27 1.24 1.27 1.31 1.36 1.41 1.39 1.37 1.36 1.43 1.49 1.60 1.80 2.09 2.30
1.70 1.60 1.65 1.68 1.56 1.51 1.48 1.59 1.70 1.87 1.96 1.89 1.84 1.86 1.84 1.77 1.65 1.55 1.47 1.39 1.32 1.27 1.23 1.22 1.18 1.17 1.16 1.13 1.16 1.14 1.17 1.24 1.25 1.26 1.28 1.30 1.35 1.41 1.36 1.41 1.53 1.70 1.94
1.68 1.54 1.51 1.55 1.48 1.43 1.32 1.37 1.45 1.42 1.48 1.50 1.62 1.73 1.65 1.60 1.53 1.50 1.47 1.40 1.26 1.22 1.19 1.19 1.11 0.98 0.94 1.02 1.09 1.10 1.07 1.17 1.18 1.17 1.26 1.27 1.30 1.36 1.36 1.41 1.47 1.60 1.80
1.86 1.66 1.51 1.47 1.47 1.39 1.32 1.33 1.36 1.29 1.25 1.27 1.31 1.43 1.46 1.45 1.43 1.30 1.26 1.26 1.22 1.19 1.13 1.06 1.03 0.97 0.90 0.93 0.94 0.96 0.94 1.00 1.08 1.11 1.19 1.23 1.28 1.29 1.31 1.37 1.41 1.54 1.67
1.83 1.62 1.51 1.46 1.38 1.34 1.30 1.27 1.21 1.11 1.10 1.16 1.30 1.32 1.34 1.40 1.44 1.41 1.33 1.25 1.18 1.13 1.06 0.96 0.91 0.96 0.92 0.82 0.77 0.79 0.83 0.91 0.94 0.95 1.06 1.13 1.18 1.19 1.27 1.32 1.40 1.48 1.67
1.78 1.71 1.54 1.43 1.31 1.20 1.17 1.12 1.07 1.00 0.98 1.06 1.19 1.28 1.22 1.21 1.29 1.37 1.26 1.10 1.05 0.97 0.94 0.89 0.85 0.89 0.83 0.72 0.73 0.74 0.74 0.81 0.82 0.84 0.92 0.98 1.01 1.02 1.08 1.11 1.24 1.42 1.61
1.96 1.90 1.73 1.55 1.38 1.25 1.17 1.13 1.07 0.95 0.92 0.98 1.11 1.18 1.17 1.16 1.18 1.23 1.17 1.10 1.03 1.00 0.95 0.94 0.91 0.87 0.75 0.72 0.67 0.66 0.70 0.77 0.84 0.91 0.92 0.87 0.87 0.84 0.81 0.88 0.99 1.19 1.43
2.01 1.93 1.82 1.64 1.45 1.36 1.25 1.24 1.16 1.03 1.03 1.03 1.03 1.10 1.13 1.18 1.20 1.19 1.16 1.13 1.14 1.14 1.05 0.96 0.93 0.87 0.77 0.66 0.54 0.53 0.62 0.79 0.91 0.98 0.95 0.80 0.75 0.86 0.88 0.89 0.91 1.04 1.17
2.19 2.10 1.87 1.69 1.46 1.30 1.22 1.18 1.12 1.05 1.09 1.05 1.00 1.01 1.00 1.02 1.03 1.10 1.15 1.14 1.13 1.07 1.00 0.93 0.89 0.86 0.68 0.58 0.51 0.53 0.59 0.73 0.78 0.79 0.85 0.92 0.94 0.88 0.92 0.92 1.03 1.11 1.22
2.05 1.99 1.80 1.66 1.53 1.35 1.25 1.18 1.13 1.11 1.06 1.00 0.96 0.91 0.85 0.87 0.90 0.97 1.08 1.17 1.15 1.04 0.94 0.86 0.84 0.80 0.66 0.59 0.56 0.57 0.63 0.70 0.66 0.62 0.67 0.74 0.79 0.79 0.86 0.97 1.15 1.21 1.33
1.54 1.50 1.44 1.41 1.38 1.25 1.19 1.18 1.17 1.12 1.02 0.91 0.84 0.78 0.79 0.83 0.84 0.91 1.02 1.09 1.14 1.02 0.84 0.76 0.77 0.73 0.70 0.61 0.52 0.51 0.54 0.65 0.65 0.67 0.72 0.69 0.63 0.68 0.80 1.00 1.24 1.40 1.46
1.30 1.21 1.19 1.25 1.24 1.15 1.16 1.18 1.13 1.04 0.90 0.80 0.77 0.76 0.80 0.85 0.84 0.95 1.03 1.00 0.94 0.91 0.82 0.76 0.75 0.67 0.57 0.49 0.40 0.42 0.48 0.58 0.66 0.72 0.79 0.78 0.65 0.60 0.67 0.89 1.12 1.29 1.35
1.39 1.25 1.21 1.18 1.13 1.13 1.21 1.20 1.10 0.90 0.78 0.75 0.77 0.80 0.80 0.76 0.76 0.92 1.00 0.92 0.89 0.88 0.83 0.80 0.74 0.63 0.52 0.43 0.36 0.33 0.34 0.40 0.59 0.75 0.75 0.74 0.69 0.65 0.72 0.88 1.05 1.18 1.38
1.36 1.28 1.19 1.13 1.06 1.04 1.09 1.08 0.92 0.72 0.66 0.71 0.80 0.82 0.77 0.84 0.85 0.84 0.87 0.88 0.89 0.79 0.71 0.73 0.69 0.62 0.56 0.47 0.36 0.31 0.30 0.35 0.49 0.66 0.72 0.68 0.64 0.74 0.95 1.07 1.17 1.33 1.57
1.16 1.06 0.99 0.96 0.90 0.82 0.79 0.76 0.64 0.59 0.64 0.75 0.81 0.80 0.82 0.90 0.89 0.81 0.71 0.69 0.70 0.67 0.62 0.62 0.60 0.60 0.61 0.49 0.40 0.39 0.38 0.41 0.49 0.63 0.76 0.80 0.80 0.97 1.17 1.31 1.40 1.52 1.62
1.00 0.89 0.84 0.79 0.68 0.63 0.59 0.53 0.50 0.54 0.64 0.69 0.75 0.76 0.76 0.81 0.86 0.78 0.63 0.58 0.51 0.44 0.45 0.47 0.46 0.52 0.51 0.40 0.37 0.38 0.41 0.45 0.51 0.60 0.79 0.94 0.98 1.09 1.24 1.37 1.44 1.50 1.51
0.84 0.82 0.73 0.67 0.59 0.57 0.54 0.50 0.46 0.49 0.62 0.66 0.63 0.59 0.62 0.66 0.69 0.70 0.60 0.43 0.29 0.23 0.22 0.24 0.28 0.29 0.30 0.27 0.27 0.30 0.36 0.41 0.51 0.67 0.94 1.03 1.01 1.06 1.15 1.27 1.38 1.38 1.36